Regional Weather Roundup
Issued by NWS

Home | Current Version | Previous Version | Text Only | Print | Product List | Glossary On
Versions: 1 2 3 4 5 6 7 8 9 10 11 12 13 14 15 16 17 18 19 20 21 22 23 24 25 26 27 28 29 30 31 32 33 34 35 36 37 38 39 40 41 42 43 44 45 46 47 48 49 50
000
ASUS44 KMEG 240510
RWRTN
TENNESSEE HOURLY STATE WEATHER ROUNDUP
NATIONAL WEATHER SERVICE MEMPHIS TN
1200 AM CDT SAT JUN 24 2017

TNZ002-004-019-021-049-052-054-088>092-240600-
WEST TENNESSEE

CITY           SKY/WX    TMP DP  RH WIND       PRES   REMARKS
MEMPHIS INTL   CLOUDY    73  71  93 NW6       29.93S
NWS MEMPHIS      N/A     71 N/A N/A MISG        N/A
JACKSON        CLOUDY    73  72  96 NW7       29.92R
SOMERVILLE     CLEAR     72  70  94 NW3       29.92R
COVINGTON      CLEAR     73  72  94 NW7       29.93R
UNION CITY     CLEAR     72  64  78 N5        29.91R
BOLIVAR        CLEAR     72  70  94 CALM      29.92R
PARIS          CLOUDY    73  70  88 N6        29.91R
HUNTINGDON     CLEAR     75  72  88 CALM      29.91R
LEXINGTON      CLEAR     75  73  94 CALM      29.91R
SELMER         MOCLDY    73  70  88 NW5       29.92R
SAVANNAH       PTCLDY    77  73  88 CALM      29.90R
$$

TNZ008-025-027-028-033-062-065-066-240600-
NORTH MIDDLE TENNESSEE

CITY           SKY/WX    TMP DP  RH WIND       PRES   REMARKS
NASHVILLE      CLOUDY    78  73  84 W7        29.89R
PORTLAND       CLOUDY    73  73 100 N8G15     29.88S
CLARKSVILLE    CLOUDY    73  70  90 NW6       29.90S
SMYRNA         CLOUDY    77  74  90 W10       29.89S
COOKEVILLE     CLOUDY    73  72  94 S5        29.90F
GALLATIN       MOCLDY    77  73  88 CALM      29.90S
CROSSVILLE     CLOUDY    71  70  96 SW3       29.96F
$$

TNZ061-075-076-078-094-096-097-240600-
SOUTH MIDDLE TENNESSEE

CITY           SKY/WX    TMP DP  RH WIND       PRES   REMARKS
FAYETTEVILLE   CLOUDY    75  73  94 S3        29.93S
TULLAHOMA      CLOUDY    73  72  94 S6        29.93S
WINCHESTER     CLOUDY    73  73 100 CALM        N/A
MCMINNVILLE    PTCLDY    73  73 100 S3        29.91F
COLUMBIA       MOCLDY    75  75 100 CALM      29.88S
SHELBYVILLE    PTCLDY    73  72  94 S6        29.90S
$$

TNZ017-018-042-046-047-240600-
NORTHEAST TENNESSEE

CITY           SKY/WX    TMP DP  RH WIND       PRES   REMARKS
TRI CITIES     CLOUDY    71  65  81 SW8       29.95R
ELIZABETHTON   CLOUDY    72  66  83 VRB5G12   29.96S
$$

TNZ012-013-036-069-073-074-240600-
CENTRAL EAST TENNESSEE

CITY           SKY/WX    TMP DP  RH WIND       PRES   REMARKS
KNOXVILLE      CLOUDY    73  70  90 SW9       29.92S
OAK RIDGE      CLOUDY    73  71  93 CALM      29.93F
DOWNTOWN KNOXV   N/A     73  73 100 W5        29.92S
GATLINBURG     CLOUDY    72  70  94 CALM      29.93S
MORRISTOWN     CLOUDY    70  68  94 NE5       29.94F
JACKSBORO      CLOUDY    72  70  94 CALM      29.96S
$$

TNZ083-085-099-240600-
SOUTHEAST TENNESSEE

CITY           SKY/WX    TMP DP  RH WIND       PRES   REMARKS
CHATTANOOGA    CLOUDY    75  72  90 CALM      29.93F
$$

SKY/WX REPORTED AS FAIR MEANS FEW OR NO CLOUDS BELOW
12 THOUSAND FEET.




USA.gov is the U.S. government's official web portal to all federal, state and local government web resources and services.